Location: Unspecified
(0.0000°N, 0.0000°E)
Time: 04:51:03
(UTC+02:00)

NOSS 3-3 (A) - Visible Passes

Search period start: 16 September 2014 00:00
Search period end: 26 September 2014 00:00
Orbit: 974 x 1239 km, 63.4° (Epoch: 14 September)

Date Brightness Start Highest point End Pass type
(mag) Time Alt. Az. Time Alt. Az. Time Alt. Az.
16 Sep 6.5 04:31:19 20° ESE 04:31:19 20° ESE 04:34:13 10° ESE visible
16 Sep 4.8 06:18:54 41° WSW 06:18:54 41° WSW 06:25:56 10° S visible
17 Sep 5.2 05:37:22 39° S 05:37:22 39° S 05:41:55 10° SSE visible
18 Sep 6.4 04:55:29 19° SE 04:55:29 19° SE 04:57:18 10° SSE visible
18 Sep 6.1 06:43:02 13° SW 06:43:02 13° SW 06:44:30 10° SW visible
19 Sep 6.2 06:00:53 15° SSW 06:00:53 15° SSW 06:02:12 10° S visible
20 Sep 6.7 05:18:32 10° S 05:18:32 10° S 05:18:37 10° S visible
